Location: Unspecified
(43.3830°N, 0.0000°E)
Time: 17:43:36
(UTC+00:00)

Explorer 7 - Pass Details

Date: 02 July 2019
Orbit: 485 x 680 km, 50.3° (Epoch: 21 July)

Event Time Altitude Azimuth Distance (km) Brightness Sun altitude
Rises 09:30:39 0° 298° (WNW) 2,784 10.0 52.5°
Reaches altitude 10° 09:32:55 10° 304° (WNW) 1,917 9.3 52.9°
Maximum altitude 09:37:13 52° 21° (NNE) 769 8.2 53.6°
Drops below altitude 10° 09:41:47 10° 98° (E) 2,030 10.5 54.4°
Sets 09:44:14 0° 103° (ESE) 2,965 11.1 54.8°
